TA2CD-18 Weather Reports


Display with metric or nautical units.
time (UTC)temp
F
wind
direction
speed
MPH
gust
MPH
rain 1hr
in
rain 24hr
in
rain mn
in
humidity
%
barometer
mb
20260902200003 75 0 0.0 0.0 0.00 0.00 0.00 62 1009.6
20260902193004 75 0 0.0 0.0 0.00 0.00 0.00 61 1009.6
20260902190005 76 0 0.0 0.0 0.00 0.00 0.00 60 1009.8
20260902183003 76 0 0.0 0.0 0.00 0.00 0.00 58 1009.8
20260902180006 77 0 0.0 0.0 0.00 0.00 0.00 57 1009.8
20260902173004 78 0 0.0 0.0 0.00 0.00 0.00 56 1009.4
20260902170003 79 0 0.0 0.0 0.00 0.00 0.00 53 1009.3
20260902163004 80 0 0.0 0.0 0.00 0.00 0.00 51 1009.2
20260902160007 81 0 0.0 0.0 0.00 0.00 0.00 48 1009.0
20260902153004 84 0 0.0 0.0 0.00 0.00 0.00 43 1009.1
20260902150003 88 0 0.0 0.0 0.00 0.00 0.00 37 1009.1
20260902143003 96 0 0.0 0.0 0.00 0.00 0.00 30 1009.0
20260902140005 98 0 0.0 0.0 0.00 0.00 0.00 27 1009.2
20260902133003 99 0 0.0 0.0 0.00 0.00 0.00 26 1009.2
20260902130004 101 0 0.0 0.0 0.00 0.00 0.00 25 1009.4
20260902123005 102 0 0.0 0.0 0.00 0.00 0.00 26 1009.5
20260902120003 91 0 0.0 0.0 0.00 0.00 0.00 34 1009.8
20260902113004 89 0 0.0 0.0 0.00 0.00 0.00 36 1010.0
20260902110005 89 0 0.0 0.0 0.00 0.00 0.00 37 1010.2
20260902103005 89 0 0.0 0.0 0.00 0.00 0.00 35 1010.5
20260902100002 87 0 0.0 0.0 0.00 0.00 0.00 38 1010.7
20260902093004 87 0 0.0 0.0 0.00 0.00 0.00 39 1010.9
20260902090005 86 0 0.0 0.0 0.00 0.00 0.00 40 1011.2
20260902083004 84 0 0.0 0.0 0.00 0.00 0.00 45 1011.2
20260902080002 83 0 0.0 0.0 0.00 0.00 0.00 47 1011.4
20260902073002 82 0 0.0 0.0 0.00 0.00 0.00 52 1011.4
20260902070005 80 0 0.0 0.0 0.00 0.00 0.00 58 1011.4
20260902063003 78 0 0.0 0.0 0.00 0.00 0.00 62 1011.2
20260902060003 76 0 0.0 0.0 0.00 0.00 0.00 66 1011.2
20260902053003 73 0 0.0 0.0 0.00 0.00 0.00 68 1011.2
20260902050007 71 0 0.0 0.0 0.00 0.00 0.00 70 1011.0
20260902043002 70 0 0.0 0.0 0.00 0.00 0.00 71 1011.0
20260902040004 69 0 0.0 0.0 0.00 0.00 0.00 72 1010.9
20260902033002 69 0 0.0 0.0 0.00 0.00 0.00 72 1010.7
20260902030004 69 0 0.0 0.0 0.00 0.00 0.00 71 1010.4
20260902023002 70 0 0.0 0.0 0.00 0.00 0.00 70 1010.5
20260902020003 70 0 0.0 0.0 0.00 0.00 0.00 70 1010.2
20260902013003 71 0 0.0 0.0 0.00 0.00 0.00 70 1010.1
20260902010002 71 0 0.0 0.0 0.00 0.00 0.00 69 1010.0
20260902003002 71 0 0.0 0.0 0.00 0.00 0.00 69 1010.0
20260902000002 71 0 0.0 0.0 0.00 0.00 0.00 68 1009.9
20260901233004 72 0 0.0 0.0 0.00 0.00 0.00 68 1009.8
20260901230004 72 0 0.0 0.0 0.00 0.00 0.00 68 1009.8
20260901223006 72 0 0.0 0.0 0.00 0.00 0.00 68 1010.0
20260901220004 72 0 0.0 0.0 0.00 0.00 0.00 67 1009.9
20260901213002 73 0 0.0 0.0 0.00 0.00 0.00 66 1009.9
20260901210003 74 0 0.0 0.0 0.00 0.00 0.00 65 1009.8
20260901203005 74 0 0.0 0.0 0.00 0.00 0.00 63 1009.7